Time,TemperatureF,DewpointF,PressureIn,WindDirection,WindDirectionDegrees,WindSpeedMPH,WindSpeedGustMPH,Humidity,HourlyPrecipIn,Conditions,Clouds,dailyrainin,SolarRadiationWatts/m^2,SoftwareType,DateUTC
2013-12-11 00:01:00,49.5,41.2,30.25,WNW,282,1.0,7.0,73,0.00,,,0.07,0.0,meteohub,2013-12-11 05:01:00,
2013-12-11 00:02:00,49.5,40.8,30.25,NW,320,2.0,7.0,72,0.00,,,0.07,0.0,meteohub,2013-12-11 05:02:00,
2013-12-11 00:03:00,49.5,41.2,30.25,NW,313,3.0,7.0,73,0.00,,,0.07,0.0,meteohub,2013-12-11 05:03:00,
2013-12-11 00:08:00,49.5,40.8,30.26,WNW,298,1.0,7.0,72,0.00,,,0.00,0.0,meteohub,2013-12-11 05:08:00,
2013-12-11 00:13:00,49.3,40.6,30.26,NW,319,0.0,7.0,72,0.00,,,0.00,0.0,meteohub,2013-12-11 05:13:00,
2013-12-11 00:18:00,49.3,41.0,30.26,West,274,0.0,6.0,73,0.00,,,0.00,0.0,meteohub,2013-12-11 05:18:00,
2013-12-11 00:23:00,49.1,40.5,30.26,NW,307,0.0,6.0,72,0.00,,,0.00,0.0,meteohub,2013-12-11 05:23:00,
2013-12-11 00:28:00,48.9,40.6,30.26,NE,56,6.0,6.0,73,0.00,,,0.00,0.0,meteohub,2013-12-11 05:28:00,
2013-12-11 00:33:00,48.7,40.5,30.26,North,11,0.0,6.0,73,0.00,,,0.00,0.0,meteohub,2013-12-11 05:33:00,
2013-12-11 00:38:00,48.7,40.5,30.26,NE,55,4.0,6.0,73,0.00,,,0.00,0.0,meteohub,2013-12-11 05:38:00,
2013-12-11 00:43:00,48.7,40.1,30.26,NE,45,0.0,7.0,72,0.00,,,0.00,0.0,meteohub,2013-12-11 05:43:00,
2013-12-11 00:48:00,48.6,40.3,30.26,WNW,299,3.0,7.0,73,0.00,,,0.00,0.0,meteohub,2013-12-11 05:48:00,
2013-12-11 00:53:00,48.6,40.6,30.26,NNE,30,2.0,6.0,74,0.00,,,0.00,0.0,meteohub,2013-12-11 05:53:00,
2013-12-11 00:58:00,48.4,40.5,30.26,NE,40,1.0,6.0,74,0.00,,,0.00,0.0,meteohub,2013-12-11 05:58:00,
2013-12-11 01:03:00,48.4,40.5,30.26,North,0,6.0,6.0,74,0.00,,,0.00,0.0,meteohub,2013-12-11 06:03:00,
2013-12-11 01:08:00,48.2,39.9,30.26,NE,42,1.0,5.0,73,0.00,,,0.00,0.0,meteohub,2013-12-11 06:08:00,
2013-12-11 01:13:00,48.2,40.6,30.26,NNW,331,0.0,9.0,75,0.00,,,0.00,0.0,meteohub,2013-12-11 06:13:00,
2013-12-11 01:18:00,48.0,40.5,30.26,East,86,3.0,9.0,75,0.00,,,0.00,0.0,meteohub,2013-12-11 06:18:00,
2013-12-11 01:23:00,48.0,40.5,30.26,NNE,21,2.0,8.0,75,0.00,,,0.00,0.0,meteohub,2013-12-11 06:23:00,
2013-12-11 01:28:00,47.8,40.3,30.26,NE,56,3.0,9.0,75,0.00,,,0.00,0.0,meteohub,2013-12-11 06:28:00,
2013-12-11 01:33:00,47.8,40.3,30.26,NNW,348,2.0,9.0,75,0.00,,,0.00,0.0,meteohub,2013-12-11 06:33:00,
2013-12-11 01:38:00,47.7,40.1,30.25,ENE,69,4.0,9.0,75,0.00,,,0.00,0.0,meteohub,2013-12-11 06:38:00,
2013-12-11 01:43:00,47.7,40.1,30.25,NNE,22,2.0,7.0,75,0.00,,,0.00,0.0,meteohub,2013-12-11 06:43:00,
2013-12-11 01:48:00,47.5,39.9,30.25,NW,324,1.0,7.0,75,0.00,,,0.00,0.0,meteohub,2013-12-11 06:48:00,
2013-12-11 01:54:00,47.5,39.9,30.25,North,11,1.0,7.0,75,0.00,,,0.00,0.0,meteohub,2013-12-11 06:54:00,
2013-12-11 01:59:00,47.3,39.7,30.26,NW,308,1.0,7.0,75,0.00,,,0.00,0.0,meteohub,2013-12-11 06:59:00,
2013-12-11 02:04:00,47.1,39.6,30.25,NNW,343,5.0,5.0,75,0.00,,,0.00,0.0,meteohub,2013-12-11 07:04:00,
2013-12-11 02:09:00,46.9,39.4,30.25,NNE,26,0.0,10.0,75,0.00,,,0.00,0.0,meteohub,2013-12-11 07:09:00,
2013-12-11 02:14:00,46.9,39.0,30.25,North,5,2.0,15.0,74,0.00,,,0.00,0.0,meteohub,2013-12-11 07:14:00,
2013-12-11 02:19:00,46.9,39.0,30.25,NE,55,2.0,15.0,74,0.00,,,0.00,0.0,meteohub,2013-12-11 07:19:00,
2013-12-11 02:24:00,46.9,39.4,30.25,NE,42,4.0,15.0,75,0.00,,,0.00,0.0,meteohub,2013-12-11 07:24:00,
2013-12-11 02:29:00,46.8,39.6,30.26,NE,52,0.0,7.0,76,0.00,,,0.00,0.0,meteohub,2013-12-11 07:29:00,
2013-12-11 02:34:00,46.8,39.9,30.26,NNE,13,0.0,7.0,77,0.00,,,0.00,0.0,meteohub,2013-12-11 07:34:00,
2013-12-11 02:39:00,46.6,39.7,30.26,NW,315,0.0,7.0,77,0.00,,,0.00,0.0,meteohub,2013-12-11 07:39:00,
2013-12-11 02:44:00,46.6,39.7,30.26,NNE,28,0.0,4.0,77,0.00,,,0.00,0.0,meteohub,2013-12-11 07:44:00,
2013-12-11 02:49:00,46.4,39.9,30.26,North,0,0.0,9.0,78,0.00,,,0.00,0.0,meteohub,2013-12-11 07:49:00,
2013-12-11 02:54:00,46.2,39.7,30.26,NW,305,1.0,9.0,78,0.00,,,0.00,0.0,meteohub,2013-12-11 07:54:00,
2013-12-11 02:59:00,46.0,40.3,30.26,NNW,330,0.0,9.0,80,0.00,,,0.00,0.0,meteohub,2013-12-11 07:59:00,
2013-12-11 03:04:00,46.0,39.9,30.26,NE,34,0.0,3.0,79,0.00,,,0.00,0.0,meteohub,2013-12-11 08:04:00,
2013-12-11 03:09:00,46.0,39.9,30.27,NNE,21,0.0,4.0,79,0.00,,,0.00,0.0,meteohub,2013-12-11 08:09:00,
2013-12-11 03:14:00,45.9,40.1,30.26,North,0,0.0,4.0,80,0.00,,,0.00,0.0,meteohub,2013-12-11 08:14:00,
2013-12-11 03:19:00,45.9,40.1,30.27,North,5,1.0,4.0,80,0.00,,,0.00,0.0,meteohub,2013-12-11 08:19:00,
2013-12-11 03:24:00,45.9,40.3,30.27,NNE,17,0.0,4.0,81,0.00,,,0.00,0.0,meteohub,2013-12-11 08:24:00,
2013-12-11 03:29:00,45.7,40.1,30.27,NW,318,0.0,5.0,81,0.00,,,0.00,0.0,meteohub,2013-12-11 08:29:00,
2013-12-11 03:34:00,45.7,40.1,30.27,WNW,284,0.0,6.0,81,0.00,,,0.00,0.0,meteohub,2013-12-11 08:34:00,
2013-12-11 03:39:00,45.5,40.3,30.27,NNW,338,1.0,6.0,82,0.00,,,0.00,0.0,meteohub,2013-12-11 08:39:00,
2013-12-11 03:44:00,45.3,40.1,30.26,NE,53,3.0,3.0,82,0.00,,,0.00,0.0,meteohub,2013-12-11 08:44:00,
2013-12-11 03:49:00,45.3,40.1,30.26,NNE,22,0.0,3.0,82,0.00,,,0.00,0.0,meteohub,2013-12-11 08:49:00,
2013-12-11 03:54:00,45.3,40.1,30.26,WNW,290,0.0,5.0,82,0.00,,,0.00,0.0,meteohub,2013-12-11 08:54:00,
2013-12-11 03:59:00,45.1,40.3,30.26,WNW,296,0.0,5.0,83,0.00,,,0.00,0.0,meteohub,2013-12-11 08:59:00,
2013-12-11 04:04:00,45.1,40.3,30.26,NE,38,4.0,5.0,83,0.00,,,0.00,0.0,meteohub,2013-12-11 09:04:00,
2013-12-11 04:09:00,45.1,40.3,30.26,North,10,0.0,3.0,83,0.00,,,0.00,0.0,meteohub,2013-12-11 09:09:00,
2013-12-11 04:14:00,45.1,40.6,30.26,North,5,0.0,6.0,84,0.00,,,0.00,0.0,meteohub,2013-12-11 09:14:00,
2013-12-11 04:19:00,45.1,40.6,30.26,NE,38,0.0,6.0,84,0.00,,,0.00,0.0,meteohub,2013-12-11 09:19:00,
2013-12-11 04:24:00,45.1,40.8,30.26,NW,309,0.0,6.0,85,0.00,,,0.00,0.0,meteohub,2013-12-11 09:24:00,
2013-12-11 04:29:00,45.1,40.6,30.26,NNE,26,1.0,3.0,84,0.00,,,0.00,0.0,meteohub,2013-12-11 09:29:00,
2013-12-11 04:34:00,45.1,40.8,30.25,NNE,28,0.0,3.0,85,0.00,,,0.00,0.0,meteohub,2013-12-11 09:34:00,
2013-12-11 04:39:00,45.1,40.8,30.25,NNE,14,1.0,4.0,85,0.00,,,0.00,0.0,meteohub,2013-12-11 09:39:00,
2013-12-11 04:44:00,45.1,41.2,30.25,NNE,32,0.0,4.0,86,0.00,,,0.00,0.0,meteohub,2013-12-11 09:44:00,
2013-12-11 04:49:00,45.0,41.0,30.26,NNE,22,2.0,4.0,86,0.00,,,0.00,0.0,meteohub,2013-12-11 09:49:00,
2013-12-11 04:54:00,45.0,41.0,30.26,NW,323,0.0,4.0,86,0.00,,,0.00,0.0,meteohub,2013-12-11 09:54:00,
2013-12-11 04:59:00,45.0,41.0,30.26,NNW,329,0.0,4.0,86,0.00,,,0.00,0.0,meteohub,2013-12-11 09:59:00,
2013-12-11 05:04:00,45.0,41.0,30.26,NNE,30,0.0,3.0,86,0.00,,,0.00,0.0,meteohub,2013-12-11 10:04:00,
2013-12-11 05:09:00,45.0,41.4,30.26,NNE,22,0.0,4.0,87,0.00,,,0.00,0.0,meteohub,2013-12-11 10:09:00,
2013-12-11 05:14:00,45.0,41.4,30.26,NE,47,0.0,4.0,87,0.00,,,0.00,0.0,meteohub,2013-12-11 10:14:00,
2013-12-11 05:19:00,44.8,41.2,30.26,North,5,0.0,4.0,87,0.00,,,0.00,0.0,meteohub,2013-12-11 10:19:00,
2013-12-11 05:24:00,44.8,41.2,30.26,NE,44,0.0,4.0,87,0.00,,,0.00,0.0,meteohub,2013-12-11 10:24:00,
2013-12-11 05:29:00,44.8,41.4,30.26,NE,44,0.0,4.0,88,0.00,,,0.00,0.0,meteohub,2013-12-11 10:29:00,
2013-12-11 05:34:00,44.8,41.4,30.26,NE,43,0.0,4.0,88,0.00,,,0.00,0.0,meteohub,2013-12-11 10:34:00,
2013-12-11 05:39:00,44.8,41.4,30.26,NE,50,2.0,4.0,88,0.00,,,0.00,0.0,meteohub,2013-12-11 10:39:00,
2013-12-11 05:44:00,44.8,41.4,30.26,NNW,327,0.0,4.0,88,0.00,,,0.00,0.0,meteohub,2013-12-11 10:44:00,
2013-12-11 05:49:00,44.6,41.2,30.26,NNW,337,0.0,4.0,88,0.00,,,0.00,0.0,meteohub,2013-12-11 10:49:00,
2013-12-11 05:54:00,44.4,41.4,30.27,NE,42,0.0,3.0,89,0.00,,,0.00,0.0,meteohub,2013-12-11 10:54:00,
2013-12-11 05:59:00,44.4,41.4,30.26,North,9,0.0,4.0,89,0.00,,,0.00,0.0,meteohub,2013-12-11 10:59:00,
2013-12-11 06:04:00,44.4,41.4,30.27,NNE,26,0.0,4.0,89,0.00,,,0.00,0.0,meteohub,2013-12-11 11:04:00,
2013-12-11 06:09:00,44.4,41.4,30.27,NNE,26,0.0,4.0,89,0.00,,,0.00,0.0,meteohub,2013-12-11 11:09:00,
2013-12-11 06:14:00,44.4,41.4,30.27,NNE,26,0.0,2.0,89,0.00,,,0.00,0.0,meteohub,2013-12-11 11:14:00,
2013-12-11 06:19:00,44.2,41.2,30.27,NNW,331,0.0,2.0,89,0.00,,,0.00,0.0,meteohub,2013-12-11 11:19:00,
2013-12-11 06:24:00,44.2,41.5,30.27,NNW,331,0.0,2.0,90,0.00,,,0.00,0.0,meteohub,2013-12-11 11:24:00,
2013-12-11 06:29:00,44.1,41.4,30.27,NW,309,0.0,2.0,90,0.00,,,0.00,0.0,meteohub,2013-12-11 11:29:00,
2013-12-11 06:34:00,44.1,41.4,30.27,NNW,327,0.0,2.0,90,0.00,,,0.00,0.0,meteohub,2013-12-11 11:34:00,
2013-12-11 06:39:00,44.2,41.7,30.28,NNE,30,0.0,2.0,91,0.00,,,0.00,0.0,meteohub,2013-12-11 11:39:00,
2013-12-11 06:44:00,44.2,41.5,30.28,WNW,293,0.0,4.0,90,0.00,,,0.00,0.0,meteohub,2013-12-11 11:44:00,
2013-12-11 06:49:00,44.2,41.5,30.28,WNW,292,0.0,4.0,90,0.00,,,0.00,0.0,meteohub,2013-12-11 11:49:00,
2013-12-11 06:54:00,44.2,41.5,30.29,WNW,292,0.0,4.0,90,0.00,,,0.00,0.0,meteohub,2013-12-11 11:54:00,
2013-12-11 06:59:00,44.1,41.4,30.29,WNW,292,0.0,4.0,90,0.00,,,0.00,0.0,meteohub,2013-12-11 11:59:00,
2013-12-11 07:04:00,44.1,41.5,30.29,NW,307,0.0,1.0,91,0.00,,,0.00,0.0,meteohub,2013-12-11 12:04:00,
2013-12-11 07:09:00,44.2,41.7,30.29,NW,309,0.0,2.0,91,0.00,,,0.00,0.0,meteohub,2013-12-11 12:09:00,
2013-12-11 07:14:00,44.2,41.7,30.28,NW,311,0.0,3.0,91,0.00,,,0.00,0.0,meteohub,2013-12-11 12:14:00,
2013-12-11 07:19:00,44.2,42.1,30.28,NW,317,0.0,3.0,92,0.00,,,0.00,5.0,meteohub,2013-12-11 12:19:00,
2013-12-11 07:24:00,44.6,42.4,30.29,NW,322,1.0,2.0,92,0.00,,,0.00,7.0,meteohub,2013-12-11 12:24:00,
2013-12-11 07:29:00,44.8,42.6,30.30,NE,53,0.0,2.0,92,0.00,,,0.00,9.0,meteohub,2013-12-11 12:29:00,
2013-12-11 07:34:00,45.0,42.8,30.29,NNE,33,0.0,2.0,92,0.00,,,0.00,12.0,meteohub,2013-12-11 12:34:00,
2013-12-11 07:39:00,45.0,42.8,30.30,NE,34,0.0,3.0,92,0.00,,,0.00,18.0,meteohub,2013-12-11 12:39:00,
2013-12-11 07:44:00,45.1,43.0,30.30,NW,318,0.0,3.0,92,0.00,,,0.00,28.0,meteohub,2013-12-11 12:44:00,
2013-12-11 07:49:00,45.7,43.7,30.30,NNE,30,0.0,3.0,93,0.00,,,0.00,44.0,meteohub,2013-12-11 12:49:00,
2013-12-11 07:54:00,45.9,43.7,30.30,NNE,30,2.0,3.0,92,0.00,,,0.00,58.0,meteohub,2013-12-11 12:54:00,
2013-12-11 07:59:00,46.2,44.2,30.30,NNE,33,0.0,3.0,93,0.00,,,0.00,77.0,meteohub,2013-12-11 12:59:00,
2013-12-11 08:04:00,46.6,44.4,30.30,WNW,295,2.0,4.0,92,0.00,,,0.00,72.0,meteohub,2013-12-11 13:04:00,
2013-12-11 08:09:00,46.8,44.6,30.31,WNW,298,1.0,4.0,92,0.00,,,0.00,121.0,meteohub,2013-12-11 13:09:00,
2013-12-11 08:14:00,47.3,45.1,30.31,NW,315,0.0,4.0,92,0.00,,,0.00,127.0,meteohub,2013-12-11 13:14:00,
2013-12-11 08:19:00,47.8,45.7,30.31,NNW,336,0.0,3.0,92,0.00,,,0.00,160.0,meteohub,2013-12-11 13:19:00,
2013-12-11 08:24:00,48.4,46.2,30.31,NW,317,0.0,2.0,92,0.00,,,0.00,176.0,meteohub,2013-12-11 13:24:00,
2013-12-11 08:29:00,48.7,46.2,30.31,NE,37,2.0,2.0,91,0.00,,,0.00,190.0,meteohub,2013-12-11 13:29:00,
2013-12-11 08:34:00,49.3,46.8,30.31,NNW,330,0.0,5.0,91,0.00,,,0.00,202.0,meteohub,2013-12-11 13:34:00,
2013-12-11 08:39:00,49.6,46.8,30.31,NW,304,0.0,5.0,90,0.00,,,0.00,218.0,meteohub,2013-12-11 13:39:00,
2013-12-11 08:44:00,50.2,47.3,30.31,North,5,2.0,5.0,90,0.00,,,0.00,237.0,meteohub,2013-12-11 13:44:00,
2013-12-11 08:49:00,50.5,47.7,30.31,NNE,30,2.0,6.0,90,0.00,,,0.00,250.0,meteohub,2013-12-11 13:49:00,
2013-12-11 08:54:00,51.1,48.0,30.32,NW,317,0.0,6.0,89,0.00,,,0.00,267.0,meteohub,2013-12-11 13:54:00,
2013-12-11 08:59:00,51.4,48.4,30.32,NE,36,0.0,6.0,89,0.00,,,0.00,279.0,meteohub,2013-12-11 13:59:00,
2013-12-11 09:04:00,52.0,48.6,30.32,NNE,18,1.0,5.0,88,0.00,,,0.00,292.0,meteohub,2013-12-11 14:04:00,
2013-12-11 09:09:00,52.3,48.6,30.32,NE,53,4.0,5.0,87,0.00,,,0.00,309.0,meteohub,2013-12-11 14:09:00,
2013-12-11 09:14:00,52.5,48.7,30.32,ENE,63,5.0,7.0,87,0.00,,,0.00,323.0,meteohub,2013-12-11 14:14:00,
2013-12-11 09:19:00,52.9,49.1,30.32,North,10,0.0,8.0,87,0.00,,,0.00,336.0,meteohub,2013-12-11 14:19:00,
2013-12-11 09:24:00,53.1,48.9,30.33,NNE,13,2.0,10.0,86,0.00,,,0.00,359.0,meteohub,2013-12-11 14:24:00,
2013-12-11 09:29:00,53.2,49.1,30.32,NE,36,0.0,10.0,86,0.00,,,0.00,369.0,meteohub,2013-12-11 14:29:00,
2013-12-11 09:34:00,53.8,49.6,30.33,NE,38,3.0,10.0,86,0.00,,,0.00,292.0,meteohub,2013-12-11 14:34:00,
2013-12-11 09:39:00,54.1,50.0,30.33,NE,45,6.0,9.0,86,0.00,,,0.00,232.0,meteohub,2013-12-11 14:39:00,
2013-12-11 09:45:00,54.1,50.0,30.33,North,355,0.0,9.0,86,0.00,,,0.00,239.0,meteohub,2013-12-11 14:45:00,
2013-12-11 09:50:00,54.5,50.4,30.33,NNE,30,2.0,6.0,86,0.00,,,0.00,156.0,meteohub,2013-12-11 14:50:00,
2013-12-11 09:55:00,55.0,50.9,30.33,NNE,24,7.0,7.0,86,0.00,,,0.00,202.0,meteohub,2013-12-11 14:55:00,
2013-12-11 10:00:00,55.6,51.1,30.34,NE,53,6.0,9.0,85,0.00,,,0.00,192.0,meteohub,2013-12-11 15:00:00,
2013-12-11 10:05:00,55.6,51.1,30.34,NE,36,7.0,10.0,85,0.00,,,0.00,188.0,meteohub,2013-12-11 15:05:00,
2013-12-11 10:10:00,55.8,51.3,30.34,NE,46,6.0,12.0,85,0.00,,,0.00,183.0,meteohub,2013-12-11 15:10:00,
2013-12-11 10:15:00,55.9,51.4,30.33,NNE,13,3.0,12.0,85,0.00,,,0.00,151.0,meteohub,2013-12-11 15:15:00,
2013-12-11 10:20:00,55.9,51.4,30.34,NNE,28,4.0,12.0,85,0.00,,,0.00,171.0,meteohub,2013-12-11 15:20:00,
2013-12-11 10:25:00,56.5,52.0,30.34,NNE,26,6.0,13.0,85,0.00,,,0.00,629.0,meteohub,2013-12-11 15:25:00,
2013-12-11 10:30:00,56.7,51.8,30.33,NE,49,7.0,13.0,84,0.00,,,0.00,253.0,meteohub,2013-12-11 15:30:00,
2013-12-11 10:35:00,56.7,51.8,30.33,NNE,32,6.0,13.0,84,0.00,,,0.00,241.0,meteohub,2013-12-11 15:35:00,
2013-12-11 10:40:00,56.8,52.0,30.33,NNW,333,2.0,15.0,84,0.00,,,0.00,237.0,meteohub,2013-12-11 15:40:00,
2013-12-11 10:45:00,57.0,52.2,30.33,NNW,345,0.0,15.0,84,0.00,,,0.00,304.0,meteohub,2013-12-11 15:45:00,
2013-12-11 10:50:00,57.7,52.9,30.33,NW,315,2.0,15.0,84,0.00,,,0.00,359.0,meteohub,2013-12-11 15:50:00,
2013-12-11 10:55:00,58.6,53.4,30.32,NE,44,10.0,12.0,83,0.00,,,0.00,635.0,meteohub,2013-12-11 15:55:00,
2013-12-11 11:00:00,59.4,54.1,30.32,NNW,348,2.0,13.0,83,0.00,,,0.00,624.0,meteohub,2013-12-11 16:00:00,
2013-12-11 11:05:00,60.3,54.3,30.32,ENE,74,5.0,13.0,81,0.00,,,0.00,638.0,meteohub,2013-12-11 16:05:00,
2013-12-11 11:10:00,60.6,54.1,30.32,NNE,28,6.0,15.0,79,0.00,,,0.00,605.0,meteohub,2013-12-11 16:10:00,
2013-12-11 11:15:00,61.2,54.7,30.32,NNE,29,4.0,16.0,79,0.00,,,0.00,429.0,meteohub,2013-12-11 16:15:00,
2013-12-11 11:20:00,61.0,54.1,30.32,NE,42,9.0,19.0,78,0.00,,,0.00,643.0,meteohub,2013-12-11 16:20:00,
2013-12-11 11:25:00,61.2,54.0,30.32,NNE,31,8.0,19.0,77,0.00,,,0.00,425.0,meteohub,2013-12-11 16:25:00,
2013-12-11 11:30:00,60.8,54.0,30.32,NE,48,2.0,19.0,78,0.00,,,0.00,348.0,meteohub,2013-12-11 16:30:00,
2013-12-11 11:35:00,60.8,54.0,30.32,NE,40,7.0,18.0,78,0.00,,,0.00,200.0,meteohub,2013-12-11 16:35:00,
2013-12-11 11:40:00,60.4,54.0,30.32,NE,42,6.0,14.0,79,0.00,,,0.00,401.0,meteohub,2013-12-11 16:40:00,
2013-12-11 11:45:00,60.3,53.8,30.32,NNE,15,3.0,13.0,79,0.00,,,0.00,253.0,meteohub,2013-12-11 16:45:00,
2013-12-11 11:50:00,60.1,53.6,30.32,NE,52,8.0,13.0,79,0.00,,,0.00,255.0,meteohub,2013-12-11 16:50:00,
2013-12-11 11:55:00,59.7,53.6,30.31,NNE,28,3.0,13.0,80,0.00,,,0.00,262.0,meteohub,2013-12-11 16:55:00,
2013-12-11 12:00:00,59.7,53.6,30.31,NNE,14,8.0,13.0,80,0.00,,,0.00,251.0,meteohub,2013-12-11 17:00:00,
2013-12-11 12:05:00,59.7,53.6,30.31,North,5,5.0,13.0,80,0.00,,,0.00,264.0,meteohub,2013-12-11 17:05:00,
2013-12-11 12:10:00,59.5,53.4,30.30,ENE,69,5.0,13.0,80,0.00,,,0.00,258.0,meteohub,2013-12-11 17:10:00,
2013-12-11 12:15:00,59.4,53.2,30.30,East,90,7.0,13.0,80,0.00,,,0.00,288.0,meteohub,2013-12-11 17:15:00,
2013-12-11 12:20:00,59.0,52.9,30.30,ENE,61,9.0,13.0,80,0.00,,,0.00,341.0,meteohub,2013-12-11 17:20:00,
2013-12-11 12:25:00,59.2,53.1,30.30,NE,44,9.0,14.0,80,0.00,,,0.00,265.0,meteohub,2013-12-11 17:25:00,
2013-12-11 12:30:00,59.0,52.5,30.30,NE,46,5.0,14.0,79,0.00,,,0.00,243.0,meteohub,2013-12-11 17:30:00,
2013-12-11 12:35:00,59.0,52.5,30.30,NNE,29,4.0,15.0,79,0.00,,,0.00,223.0,meteohub,2013-12-11 17:35:00,
2013-12-11 12:40:00,59.0,52.2,30.29,North,355,6.0,15.0,78,0.00,,,0.00,193.0,meteohub,2013-12-11 17:40:00,
2013-12-11 12:45:00,58.6,51.8,30.29,NNE,23,7.0,16.0,78,0.00,,,0.00,202.0,meteohub,2013-12-11 17:45:00,
2013-12-11 12:50:00,58.5,52.0,30.29,NE,45,13.0,17.0,79,0.00,,,0.00,216.0,meteohub,2013-12-11 17:50:00,
2013-12-11 12:55:00,58.5,52.0,30.29,NNE,28,4.0,17.0,79,0.00,,,0.00,207.0,meteohub,2013-12-11 17:55:00,
2013-12-11 13:00:00,58.5,51.6,30.29,ENE,69,3.0,17.0,78,0.00,,,0.00,209.0,meteohub,2013-12-11 18:00:00,
2013-12-11 13:05:00,58.5,51.6,30.28,NE,56,7.0,16.0,78,0.00,,,0.00,234.0,meteohub,2013-12-11 18:05:00,
2013-12-11 13:10:00,58.5,51.6,30.28,NNE,25,13.0,16.0,78,0.00,,,0.00,200.0,meteohub,2013-12-11 18:10:00,
2013-12-11 13:15:00,58.5,51.6,30.28,NNW,337,4.0,15.0,78,0.00,,,0.00,220.0,meteohub,2013-12-11 18:15:00,
2013-12-11 13:20:00,58.6,51.8,30.28,NNW,331,2.0,15.0,78,0.00,,,0.00,223.0,meteohub,2013-12-11 18:20:00,
2013-12-11 13:25:00,58.6,51.4,30.28,NE,38,10.0,15.0,77,0.00,,,0.00,200.0,meteohub,2013-12-11 18:25:00,
2013-12-11 13:30:00,58.8,51.6,30.28,ENE,59,11.0,15.0,77,0.00,,,0.00,246.0,meteohub,2013-12-11 18:30:00,
2013-12-11 13:35:00,58.6,51.4,30.28,ENE,59,7.0,15.0,77,0.00,,,0.00,297.0,meteohub,2013-12-11 18:35:00,
2013-12-11 13:40:00,58.8,51.6,30.27,ENE,68,5.0,11.0,77,0.00,,,0.00,325.0,meteohub,2013-12-11 18:40:00,
2013-12-11 13:45:00,59.0,51.8,30.27,NNE,22,4.0,12.0,77,0.00,,,0.00,272.0,meteohub,2013-12-11 18:45:00,
2013-12-11 13:50:00,59.0,51.8,30.27,NE,37,4.0,12.0,77,0.00,,,0.00,271.0,meteohub,2013-12-11 18:50:00,
2013-12-11 13:55:00,59.0,51.4,30.27,NE,36,6.0,11.0,76,0.00,,,0.00,257.0,meteohub,2013-12-11 18:55:00,
2013-12-11 14:00:00,59.0,51.1,30.26,NNW,327,3.0,12.0,75,0.00,,,0.00,206.0,meteohub,2013-12-11 19:00:00,
2013-12-11 14:05:00,59.0,51.1,30.26,NE,34,6.0,15.0,75,0.00,,,0.00,221.0,meteohub,2013-12-11 19:05:00,
2013-12-11 14:10:00,59.0,51.4,30.26,NE,40,7.0,15.0,76,0.00,,,0.00,457.0,meteohub,2013-12-11 19:10:00,
2013-12-11 14:15:00,59.0,51.1,30.26,North,0,4.0,15.0,75,0.00,,,0.00,229.0,meteohub,2013-12-11 19:15:00,
2013-12-11 14:20:00,59.0,51.1,30.25,NE,39,8.0,15.0,75,0.00,,,0.00,380.0,meteohub,2013-12-11 19:20:00,
2013-12-11 14:25:00,59.0,51.1,30.25,NNE,28,4.0,15.0,75,0.00,,,0.00,360.0,meteohub,2013-12-11 19:25:00,
2013-12-11 14:30:00,59.2,51.6,30.26,NE,44,9.0,14.0,76,0.00,,,0.00,195.0,meteohub,2013-12-11 19:30:00,
2013-12-11 14:35:00,59.0,51.1,30.25,ENE,61,5.0,14.0,75,0.00,,,0.00,251.0,meteohub,2013-12-11 19:35:00,
2013-12-11 14:40:00,59.0,51.4,30.26,NE,55,6.0,10.0,76,0.00,,,0.00,199.0,meteohub,2013-12-11 19:40:00,
2013-12-11 14:45:00,59.0,51.4,30.26,NNE,27,7.0,13.0,76,0.00,,,0.00,149.0,meteohub,2013-12-11 19:45:00,
2013-12-11 14:50:00,59.0,51.8,30.26,NNW,338,1.0,13.0,77,0.00,,,0.00,169.0,meteohub,2013-12-11 19:50:00,
2013-12-11 14:55:00,59.0,51.8,30.26,NE,35,1.0,13.0,77,0.00,,,0.00,144.0,meteohub,2013-12-11 19:55:00,
2013-12-11 15:00:00,59.0,51.4,30.26,NNE,22,3.0,11.0,76,0.00,,,0.00,176.0,meteohub,2013-12-11 20:00:00,
2013-12-11 15:05:00,59.0,51.4,30.26,NNE,19,3.0,9.0,76,0.00,,,0.00,109.0,meteohub,2013-12-11 20:05:00,
2013-12-11 15:10:00,58.8,51.6,30.26,NNE,27,4.0,15.0,77,0.00,,,0.00,139.0,meteohub,2013-12-11 20:10:00,
2013-12-11 15:15:00,58.8,52.0,30.26,NW,306,9.0,15.0,78,0.00,,,0.00,155.0,meteohub,2013-12-11 20:15:00,
2013-12-11 15:20:00,58.3,50.7,30.26,NE,37,3.0,15.0,76,0.00,,,0.00,158.0,meteohub,2013-12-11 20:20:00,
2013-12-11 15:25:00,58.3,51.4,30.26,NNE,21,4.0,14.0,78,0.00,,,0.00,139.0,meteohub,2013-12-11 20:25:00,
2013-12-11 15:30:00,58.3,51.1,30.26,ENE,67,8.0,14.0,77,0.00,,,0.00,146.0,meteohub,2013-12-11 20:30:00,
2013-12-11 15:35:00,58.1,51.3,30.26,NNE,31,1.0,11.0,78,0.00,,,0.00,155.0,meteohub,2013-12-11 20:35:00,
2013-12-11 15:40:00,58.1,50.9,30.26,NE,53,8.0,8.0,77,0.00,,,0.00,97.0,meteohub,2013-12-11 20:40:00,
2013-12-11 15:45:00,57.7,50.9,30.27,ENE,62,7.0,13.0,78,0.00,,,0.00,114.0,meteohub,2013-12-11 20:45:00,
2013-12-11 15:50:00,57.6,50.7,30.27,NE,36,7.0,13.0,78,0.00,,,0.00,158.0,meteohub,2013-12-11 20:50:00,
2013-12-11 15:55:00,57.4,50.5,30.27,NNE,32,10.0,13.0,78,0.00,,,0.00,81.0,meteohub,2013-12-11 20:55:00,
2013-12-11 16:00:00,57.2,50.4,30.27,NNE,30,1.0,13.0,78,0.00,,,0.00,81.0,meteohub,2013-12-11 21:00:00,
2013-12-11 16:05:00,57.0,50.5,30.27,NE,49,5.0,13.0,79,0.00,,,0.00,54.0,meteohub,2013-12-11 21:05:00,
2013-12-11 16:10:00,56.8,50.4,30.27,NE,54,4.0,12.0,79,0.00,,,0.00,46.0,meteohub,2013-12-11 21:10:00,
2013-12-11 16:15:00,56.8,50.4,30.27,ENE,64,1.0,12.0,79,0.00,,,0.00,42.0,meteohub,2013-12-11 21:15:00,
2013-12-11 16:20:00,56.7,50.2,30.27,North,355,3.0,10.0,79,0.00,,,0.00,62.0,meteohub,2013-12-11 21:20:00,
2013-12-11 16:25:00,56.5,50.4,30.27,NNE,30,8.0,8.0,80,0.00,,,0.00,83.0,meteohub,2013-12-11 21:25:00,
2013-12-11 16:30:00,56.5,50.4,30.27,NE,51,5.0,9.0,80,0.00,,,0.00,72.0,meteohub,2013-12-11 21:30:00,
2013-12-11 16:35:00,56.5,50.4,30.26,North,11,4.0,11.0,80,0.00,,,0.00,42.0,meteohub,2013-12-11 21:35:00,
2013-12-11 16:40:00,56.5,50.4,30.27,NE,38,6.0,11.0,80,0.00,,,0.00,35.0,meteohub,2013-12-11 21:40:00,
2013-12-11 16:45:00,56.5,50.7,30.27,NE,42,0.0,11.0,81,0.00,,,0.00,21.0,meteohub,2013-12-11 21:45:00,
2013-12-11 16:50:00,56.3,50.2,30.27,NNE,33,4.0,9.0,80,0.00,,,0.00,12.0,meteohub,2013-12-11 21:50:00,
2013-12-11 16:55:00,56.1,50.4,30.27,NE,51,0.0,9.0,81,0.00,,,0.00,16.0,meteohub,2013-12-11 21:55:00,
2013-12-11 17:00:00,56.1,50.7,30.27,NE,34,0.0,9.0,82,0.00,,,0.00,14.0,meteohub,2013-12-11 22:00:00,
2013-12-11 17:05:00,56.1,50.4,30.27,NNE,22,0.0,8.0,81,0.00,,,0.00,16.0,meteohub,2013-12-11 22:05:00,
2013-12-11 17:10:00,55.9,50.2,30.27,North,11,5.0,7.0,81,0.00,,,0.00,7.0,meteohub,2013-12-11 22:10:00,
2013-12-11 17:15:00,55.8,50.0,30.27,NE,34,4.0,9.0,81,0.00,,,0.00,5.0,meteohub,2013-12-11 22:15:00,
2013-12-11 17:20:00,55.8,50.4,30.27,NNE,33,0.0,9.0,82,0.00,,,0.00,0.0,meteohub,2013-12-11 22:20:00,
2013-12-11 17:25:00,55.6,49.8,30.27,WNW,294,2.0,6.0,81,0.00,,,0.00,0.0,meteohub,2013-12-11 22:25:00,
2013-12-11 17:30:00,55.6,49.8,30.27,North,11,1.0,12.0,81,0.00,,,0.00,0.0,meteohub,2013-12-11 22:30:00,
2013-12-11 17:35:00,55.6,50.2,30.27,NNE,31,3.0,12.0,82,0.00,,,0.00,0.0,meteohub,2013-12-11 22:35:00,
2013-12-11 17:40:00,55.4,50.0,30.27,ENE,57,7.0,12.0,82,0.00,,,0.00,0.0,meteohub,2013-12-11 22:40:00,
2013-12-11 17:45:00,55.2,49.8,30.28,NE,34,0.0,8.0,82,0.00,,,0.00,0.0,meteohub,2013-12-11 22:45:00,
2013-12-11 17:50:00,55.2,49.8,30.27,NE,34,0.0,8.0,82,0.00,,,0.00,0.0,meteohub,2013-12-11 22:50:00,
2013-12-11 17:55:00,55.0,49.6,30.28,NNE,17,0.0,8.0,82,0.00,,,0.00,0.0,meteohub,2013-12-11 22:55:00,
2013-12-11 18:00:00,55.0,50.0,30.28,NW,321,0.0,4.0,83,0.00,,,0.00,0.0,meteohub,2013-12-11 23:00:00,
2013-12-11 18:05:00,55.0,50.0,30.28,NE,42,0.0,4.0,83,0.00,,,0.00,0.0,meteohub,2013-12-11 23:05:00,
2013-12-11 18:10:00,55.0,49.6,30.28,NE,39,3.0,6.0,82,0.00,,,0.00,0.0,meteohub,2013-12-11 23:10:00,
2013-12-11 18:15:00,55.2,49.5,30.28,NNE,33,3.0,7.0,81,0.00,,,0.00,0.0,meteohub,2013-12-11 23:15:00,
2013-12-11 18:20:00,55.0,48.9,30.28,NW,325,0.0,7.0,80,0.00,,,0.00,0.0,meteohub,2013-12-11 23:20:00,
2013-12-11 18:25:00,55.0,48.9,30.28,ENE,59,0.0,7.0,80,0.00,,,0.00,0.0,meteohub,2013-12-11 23:25:00,
2013-12-11 18:30:00,55.0,48.9,30.29,ENE,59,0.0,6.0,80,0.00,,,0.00,0.0,meteohub,2013-12-11 23:30:00,
2013-12-11 18:35:00,55.0,48.9,30.29,NNE,26,0.0,4.0,80,0.00,,,0.00,0.0,meteohub,2013-12-11 23:35:00,
2013-12-11 18:40:00,55.0,49.3,30.29,NE,47,0.0,2.0,81,0.00,,,0.00,0.0,meteohub,2013-12-11 23:40:00,
2013-12-11 18:45:00,55.0,49.3,30.29,WNW,291,0.0,4.0,81,0.00,,,0.00,0.0,meteohub,2013-12-11 23:45:00,
2013-12-11 18:50:00,55.0,49.3,30.28,NNE,26,0.0,6.0,81,0.00,,,0.00,0.0,meteohub,2013-12-11 23:50:00,
2013-12-11 18:55:00,55.0,49.3,30.28,NNE,25,0.0,6.0,81,0.00,,,0.00,0.0,meteohub,2013-12-11 23:55:00,
2013-12-11 19:00:00,55.0,48.9,30.28,NE,55,0.0,6.0,80,0.00,,,0.00,0.0,meteohub,2013-12-12 00:00:00,
2013-12-11 19:05:00,55.0,48.9,30.28,NNE,24,0.0,5.0,80,0.00,,,0.00,0.0,meteohub,2013-12-12 00:05:00,
2013-12-11 19:11:00,55.0,49.3,30.28,NE,44,0.0,5.0,81,0.00,,,0.00,0.0,meteohub,2013-12-12 00:11:00,
2013-12-11 19:16:00,55.0,49.3,30.28,NNE,22,0.0,5.0,81,0.00,,,0.00,0.0,meteohub,2013-12-12 00:16:00,
2013-12-11 19:21:00,55.0,49.3,30.28,NNW,334,0.0,5.0,81,0.00,,,0.00,0.0,meteohub,2013-12-12 00:21:00,
2013-12-11 19:26:00,55.0,49.3,30.28,NNW,346,0.0,3.0,81,0.00,,,0.00,0.0,meteohub,2013-12-12 00:26:00,
2013-12-11 19:31:00,54.9,49.1,30.28,NNW,329,0.0,3.0,81,0.00,,,0.00,0.0,meteohub,2013-12-12 00:31:00,
2013-12-11 19:36:00,54.9,49.5,30.28,NNE,30,0.0,3.0,82,0.00,,,0.00,0.0,meteohub,2013-12-12 00:36:00,
2013-12-11 19:41:00,54.9,49.1,30.28,NNE,18,2.0,4.0,81,0.00,,,0.00,0.0,meteohub,2013-12-12 00:41:00,
2013-12-11 19:46:00,54.9,49.1,30.28,NE,36,1.0,4.0,81,0.00,,,0.00,0.0,meteohub,2013-12-12 00:46:00,
2013-12-11 19:51:00,54.9,49.5,30.28,NE,41,0.0,4.0,82,0.00,,,0.00,0.0,meteohub,2013-12-12 00:51:00,
2013-12-11 19:56:00,54.9,49.1,30.28,West,271,0.0,4.0,81,0.00,,,0.00,0.0,meteohub,2013-12-12 00:56:00,
2013-12-11 20:01:00,54.9,49.1,30.28,NNW,340,0.0,4.0,81,0.00,,,0.00,0.0,meteohub,2013-12-12 01:01:00,
2013-12-11 20:06:00,54.9,49.5,30.28,NNE,20,0.0,4.0,82,0.00,,,0.00,0.0,meteohub,2013-12-12 01:06:00,
2013-12-11 20:11:00,54.9,49.1,30.28,North,5,0.0,4.0,81,0.00,,,0.00,0.0,meteohub,2013-12-12 01:11:00,
2013-12-11 20:16:00,54.9,49.1,30.28,NNE,30,0.0,4.0,81,0.00,,,0.00,0.0,meteohub,2013-12-12 01:16:00,
2013-12-11 20:21:00,54.9,49.1,30.28,NE,40,0.0,6.0,81,0.00,,,0.00,0.0,meteohub,2013-12-12 01:21:00,
2013-12-11 20:26:00,54.7,48.6,30.29,NNE,30,0.0,6.0,80,0.00,,,0.00,0.0,meteohub,2013-12-12 01:26:00,
2013-12-11 20:31:00,54.7,48.9,30.29,NNW,337,1.0,6.0,81,0.00,,,0.00,0.0,meteohub,2013-12-12 01:31:00,
2013-12-11 20:36:00,54.7,48.9,30.29,NE,35,1.0,5.0,81,0.00,,,0.00,0.0,meteohub,2013-12-12 01:36:00,
2013-12-11 20:41:00,54.7,48.6,30.29,NNE,30,0.0,5.0,80,0.00,,,0.00,0.0,meteohub,2013-12-12 01:41:00,
2013-12-11 20:46:00,54.7,48.6,30.29,NE,39,1.0,7.0,80,0.00,,,0.00,0.0,meteohub,2013-12-12 01:46:00,
2013-12-11 20:51:00,54.7,48.6,30.29,NE,56,0.0,7.0,80,0.00,,,0.00,0.0,meteohub,2013-12-12 01:51:00,
2013-12-11 20:56:00,54.7,48.6,30.29,NE,45,0.0,7.0,80,0.00,,,0.00,0.0,meteohub,2013-12-12 01:56:00,
2013-12-11 21:01:00,54.7,48.4,30.29,NNE,29,2.0,6.0,79,0.00,,,0.00,0.0,meteohub,2013-12-12 02:01:00,
2013-12-11 21:06:00,54.7,48.6,30.29,NNW,329,0.0,6.0,80,0.00,,,0.00,0.0,meteohub,2013-12-12 02:06:00,
2013-12-11 21:11:00,54.7,48.4,30.29,North,0,0.0,6.0,79,0.00,,,0.00,0.0,meteohub,2013-12-12 02:11:00,
2013-12-11 21:16:00,54.7,48.4,30.29,NNE,32,1.0,5.0,79,0.00,,,0.00,0.0,meteohub,2013-12-12 02:16:00,
2013-12-11 21:21:00,54.7,48.0,30.29,NNE,32,3.0,5.0,78,0.00,,,0.00,0.0,meteohub,2013-12-12 02:21:00,
2013-12-11 21:26:00,54.5,48.2,30.29,NNE,15,1.0,4.0,79,0.00,,,0.00,0.0,meteohub,2013-12-12 02:26:00,
2013-12-11 21:31:00,54.3,47.7,30.28,WNW,292,2.0,4.0,78,0.00,,,0.00,0.0,meteohub,2013-12-12 02:31:00,
2013-12-11 21:36:00,54.3,47.7,30.29,NW,306,0.0,5.0,78,0.00,,,0.00,0.0,meteohub,2013-12-12 02:36:00,
2013-12-11 21:41:00,54.3,47.3,30.29,NNW,333,1.0,6.0,77,0.00,,,0.00,0.0,meteohub,2013-12-12 02:41:00,
2013-12-11 21:46:00,54.1,47.1,30.29,NW,304,0.0,6.0,77,0.00,,,0.00,0.0,meteohub,2013-12-12 02:46:00,
2013-12-11 21:51:00,54.1,47.1,30.29,NE,53,0.0,6.0,77,0.00,,,0.00,0.0,meteohub,2013-12-12 02:51:00,
2013-12-11 21:56:00,54.1,47.1,30.29,NW,306,0.0,3.0,77,0.00,,,0.00,0.0,meteohub,2013-12-12 02:56:00,
2013-12-11 22:01:00,54.1,46.8,30.29,NNE,20,0.0,6.0,76,0.00,,,0.00,0.0,meteohub,2013-12-12 03:01:00,
2013-12-11 22:06:00,54.1,46.4,30.29,NW,304,0.0,6.0,75,0.00,,,0.00,0.0,meteohub,2013-12-12 03:06:00,
2013-12-11 22:11:00,54.1,46.4,30.29,NE,47,1.0,6.0,75,0.00,,,0.00,0.0,meteohub,2013-12-12 03:11:00,
2013-12-11 22:16:00,54.1,46.4,30.29,NNE,25,1.0,5.0,75,0.00,,,0.00,0.0,meteohub,2013-12-12 03:16:00,
2013-12-11 22:21:00,54.1,46.0,30.29,North,9,2.0,4.0,74,0.00,,,0.00,0.0,meteohub,2013-12-12 03:21:00,
2013-12-11 22:26:00,54.1,45.7,30.29,NNE,22,0.0,3.0,73,0.00,,,0.00,0.0,meteohub,2013-12-12 03:26:00,
2013-12-11 22:31:00,54.0,45.5,30.29,North,355,0.0,5.0,73,0.00,,,0.00,0.0,meteohub,2013-12-12 03:31:00,
2013-12-11 22:36:00,54.0,45.9,30.29,WNW,283,0.0,5.0,74,0.00,,,0.00,0.0,meteohub,2013-12-12 03:36:00,
2013-12-11 22:41:00,54.0,45.9,30.29,North,0,0.0,5.0,74,0.00,,,0.00,0.0,meteohub,2013-12-12 03:41:00,
2013-12-11 22:46:00,53.8,46.0,30.29,NNW,328,0.0,3.0,75,0.00,,,0.00,0.0,meteohub,2013-12-12 03:46:00,
2013-12-11 22:51:00,53.8,45.7,30.29,NNW,330,0.0,3.0,74,0.00,,,0.00,0.0,meteohub,2013-12-12 03:51:00,
2013-12-11 22:56:00,53.8,45.3,30.28,NE,49,3.0,3.0,73,0.00,,,0.00,0.0,meteohub,2013-12-12 03:56:00,
2013-12-11 23:01:00,53.6,45.5,30.29,NE,49,0.0,5.0,74,0.00,,,0.00,0.0,meteohub,2013-12-12 04:01:00,
2013-12-11 23:06:00,53.6,45.5,30.28,NW,309,0.0,5.0,74,0.00,,,0.00,0.0,meteohub,2013-12-12 04:06:00,
2013-12-11 23:11:00,53.4,45.3,30.28,NW,309,0.0,5.0,74,0.00,,,0.00,0.0,meteohub,2013-12-12 04:11:00,
2013-12-11 23:16:00,53.4,45.3,30.28,NW,309,0.0,3.0,74,0.00,,,0.00,0.0,meteohub,2013-12-12 04:16:00,
2013-12-11 23:21:00,53.4,45.3,30.28,NW,309,0.0,1.0,74,0.00,,,0.00,0.0,meteohub,2013-12-12 04:21:00,
2013-12-11 23:26:00,53.4,45.7,30.28,NW,309,0.0,1.0,75,0.00,,,0.00,0.0,meteohub,2013-12-12 04:26:00,
2013-12-11 23:31:00,53.2,45.5,30.28,NW,309,0.0,1.0,75,0.00,,,0.00,0.0,meteohub,2013-12-12 04:31:00,
2013-12-11 23:36:00,53.2,45.5,30.28,NW,309,0.0,0.0,75,0.00,,,0.00,0.0,meteohub,2013-12-12 04:36:00,
2013-12-11 23:41:00,53.2,45.9,30.28,NW,309,0.0,0.0,76,0.00,,,0.00,0.0,meteohub,2013-12-12 04:41:00,
2013-12-11 23:46:00,53.1,45.7,30.28,NW,309,0.0,0.0,76,0.00,,,0.00,0.0,meteohub,2013-12-12 04:46:00,
2013-12-11 23:51:00,53.1,45.7,30.28,NW,309,0.0,0.0,76,0.00,,,0.00,0.0,meteohub,2013-12-12 04:51:00,
2013-12-11 23:56:00,52.9,45.9,30.28,NW,309,0.0,0.0,77,0.00,,,0.00,0.0,meteohub,2013-12-12 04:56:00,